sat.trackr.live / text

‹ back to catalog

UNKNOWN

NORAD 87426

UNKNOWN UNKNOWN UNKNOWN

§ Identity

Operator
Country
Launch date
Launch site
Launch vehicle
Mass (kg)
RCS (m²)

External: N2YO · Heavens-Above

§ Orbital elements

Epoch: 2026-05-23T07:58:41.854368Z

Period
100.61 min
Inclination
65.7825°
Eccentricity
0.0065134
Mean motion
14.31213322 rev/d
Perigee alt
741.0 km
Apogee alt
834.4 km
Semi-major
7,165.8 km
B*
1.1632e-3
RAAN
255.8019°
Arg perigee
219.5964°
Mean anomaly
174.6984°
Rev number
64,570

§ Raw data

UNKNOWN1 87426U          26143.33242887  .00003059  00000+0  11632-2 0  99912 87426  65.7825 255.8019 0065134 219.5964 174.6984 14.31213322645700

JSON: /api/v1/satellites/87426 · /tle

For live sub-satellite position, see the globe view (requires WebGL).

§ Visibility from observer

Set your observer location to see the next 7 days of passes ≥ 10°. The values pass through the URL so the page stays shareable.

No JS? Fill the form by hand. The geolocation button needs JavaScript.